Regional Weather Roundup
Issued by NWS

Home | Current Version | Previous Version | Graphics & Text | Print | Product List | Glossary On
Versions: 1 2 3 4 5 6 7 8 9 10 11 12 13 14 15 16 17 18 19 20 21 22 23 24 25 26 27 28 29 30 31 32 33 34 35 36 37 38 39 40 41 42 43 44 45 46 47 48 49 50
463
ASUS43 KLOT 010908
RWRIL

ILLINOIS REGIONAL WEATHER ROUNDUP
NATIONAL WEATHER SERVICE CHICAGO/ROMEOVILLE IL
400 AM CDT SUN MAY 01 2016

NOTE: "FAIR" INDICATES FEW OR NO CLOUDS BELOW 12,000 FEET WITH NO
SIGNIFICANT WEATHER AND/OR OBSTRUCTIONS TO VISIBILITY.

* THESE STATIONS ARE NOT UNDER NWS QUALITY CONTROL. THEY ALSO MAY NOT
  REPORT WEATHER SUCH AS PRECIPITATION OR FOG.

ILZ001-002-007-009-015-016-024-011000-
NORTHWEST ILLINOIS

CITY           SKY/WX    TMP DP  RH WIND       PRES   REMARKS
MOLINE         CLOUDY    47  44  90 NE10      29.91S FOG
STERLING*      CLOUDY    46  45  93 NE7       29.93R
SAVANNA*       CLOUDY    46  44  95 NE9       29.94S
$$

ILZ003-004-008-010-011-017-018-011000-
NORTH CENTRAL ILLINOIS

CITY           SKY/WX    TMP DP  RH WIND       PRES   REMARKS
ROCKFORD       CLOUDY    46  44  93 NE14      29.95F
FREEPORT*      CLOUDY    44  44  98 NE10      29.96R FOG
ROCHELLE*      CLOUDY    46  45  97 NE15      29.92S FOG
DE KALB*       CLOUDY    46  45  98 NE12      29.93R FOG
$$

ILZ005-006-012>014-019>023-011000-
NORTHEAST ILLINOIS

CITY           SKY/WX    TMP DP  RH WIND       PRES   REMARKS
CHICAGO-OHARE  DRIZZLE   45  44  97 NE15      29.92R FOG
CHICAGO-MIDWAY CLOUDY    46  44  93 N12       29.90F FOG
AURORA         CLOUDY    47  45  93 NE13      29.90F FOG
LANSING*       CLOUDY    47  47 100 NE7       29.90S FOG
JOLIET*        CLOUDY    48  47  97 NE10      29.89S FOG
WAUKEGAN       CLOUDY    43  42  97 N13G22    29.95R FOG
DUPAGE AIRPORT CLOUDY    46  43  89 NE10      29.91R FOG
KANKAKEE*      CLOUDY    48  47  97 NE8       29.89R FOG
WHEELING       CLOUDY    43  43 100 NE10      29.95R FOG
MORRIS*        CLOUDY    47  46  96 NE3       29.89R FOG
ROMEOVILLE*    CLOUDY    46  46  99 NE13      29.89S FOG
NORTHERLY ISL    N/A     44  43  96 N9          N/A
NORTHERLY ISL    N/A     44  43  96 N9          N/A
$$

LMZ740>746-011000-
SOUTHERN LAKE MICHIGAN

STATION/POSITION SKY/WX   TEMP    WIND        PRES    VSBY  WAVE
                          AIR SEA DIR/SP/G                  HT/PER
                          (F)     (DEG/KT/KT) (MB)    (MI)  (FT/S)
SOUTHERN BUOY              42 40   40/ 14/ 16 1014.0R         2/ 4
HARRISON CRIB              44      30/ 14/ 15   N/A
BURNHAM HARBOR             45      10/  9/ 11   N/A
CALUMET HARBOR             45     350/  7/  9 1012.4R
BURNS HARBOR               47      20/  6/  9 1013.2R
MICHIGAN CITY              48      50/  6/  7   N/A
ST. JOSEPH                 49 49                N/A           2/ 4
$$

ILZ025>027-034>036-040-047-049-050-058-095>099-011000-
WEST-CENTRAL ILLINOIS

CITY           SKY/WX    TMP DP  RH WIND       PRES   REMARKS
QUINCY         FOG       51  51 100 N10       29.87R VSB 3/4
GALESBURG*     CLOUDY    46  46  98 N9        29.90R FOG
MACOMB*        CLOUDY    48  48 100 N9        29.91R FOG
JACKSONVILLE*  FOG       54  53  97 N6        29.86S VSB 1/2
PITTSFIELD*    FOG       56  56 100 CALM      29.87R VSB 1/2
$$

ILZ028>032-037-038-041>044-048-051>054-059>061-011000-
CENTRAL ILLINOIS

CITY           SKY/WX    TMP DP  RH WIND       PRES   REMARKS
PONTIAC        CLOUDY    49  49 100 NE7       29.89R FOG
BLOOMINGTON    FOG       49  49 100 NE9       29.89R VSB 1/2
DECATUR        PTCLDY    58  55  90 NW6       29.86R
PEORIA         CLOUDY    49  47  93 NE8       29.88S FOG
LACON*         CLOUDY    47  46  97 NE3       29.89S FOG
LINCOLN*       FOG       52  52 100 N7        29.86S VSB 3/4
SPRINGFIELD    FOG       54  53  97 N7        29.86R VSB 1/2
TAYLORVILLE    PTCLDY    55  54  94 CALM      29.86R
$$

ILZ033-039-045-046-055>057-062-063-011000-
EAST-CENTRAL ILLINOIS

CITY           SKY/WX    TMP DP  RH WIND       PRES   REMARKS
CHAMPAIGN      FOG       52  52 100 N6        29.85S VSB 1/4
RANTOUL*       FOG       54  53  99 N7        29.86S VSB 1/4
MATTOON        CLOUDY    58  51  78 SW5       29.86R
PARIS*         MOCLDY    60  56  87 SW5       29.86R
$$

ILZ079-100>102-011000-
SOUTHWEST ILLINOIS

CITY           SKY/WX    TMP DP  RH WIND       PRES   REMARKS
ALTON          MOCLDY    56  55  97 CALM      29.85S
BELLEVILLE     CLOUDY    58  58 100 CALM      29.84S
CAHOKIA*       CLOUDY    57  55  93 CALM      29.85S
SPARTA*        CLOUDY    58  57  96 S7        29.87R
$$

ILZ064>066-069>071-074>076-080>082-084>086-088>090-092>094-011000-
SOUTH-CENTRAL ILLINOIS

CITY           SKY/WX    TMP DP  RH WIND       PRES   REMARKS
CARBONDALE     CLOUDY    59  56  89 E3        29.89R
CAIRO*         CLOUDY    63  62  98 E3        29.89R
EFFINGHAM*     MOCLDY    57  57 100 CALM      29.88R
MARION         CLOUDY    59  57  94 SE3       29.90S
MT. VERNON     CLOUDY    57  54  88 CALM      29.88F
CENTRALIA*     DRIZZLE   62  59  91 S12       29.84F
SALEM*         LGT RAIN  60  57  89 S6        29.86S
METROPOLIS*    CLOUDY    64  62  94 CALM      29.90S
$$

ILZ067-068-072-073-078-083-087-091-011000-
SOUTHEAST ILLINOIS

CITY           SKY/WX    TMP DP  RH WIND       PRES   REMARKS
LAWRENCEVILLE  CLOUDY    59  57  93 S12         N/A
FLORA*         LGT RAIN  60  58  92 SW9       29.88R
FAIRFIELD*     CLOUDY    58  57  99 CALM      29.86F
HARRISBURG*    CLOUDY    59  58  95 SE3       29.90S
ROBINSON*      MOCLDY    56  55  97 CALM      29.85F
CARMI*         LGT RAIN  58  57  96 SE3       29.89S
$$

ABBREVIATIONS USED IN REMARKS
   TC - TEMPERATURE IN CELSIUS
  WCI - WIND CHILL INDEX
   HX - HEAT INDEX
  VSB - VISIBILITY
$$





USA.gov is the U.S. government's official web portal to all federal, state and local government web resources and services.